Arctic Village, AK

1:11 AM AKDT on May 30, 2017 (GMT -0800)
Arctic Village

Weather History for PARC - April, 2014

Change the Weather History Date:

Friday, April 18, 2014

  Actual Average Record
Temperature  
Mean Temperature 28 °F -  
Max Temperature 32 °F 37 °F 47 °F (1989)
Min Temperature 24 °F 8 °F -11 °F (2013)
Degree Days  
Heating Degree Days 37    
Moisture  
Dew Point 20 °F    
Average Humidity 72    
Maximum Humidity 100    
Minimum Humidity 47    
Precipitation  
Precipitation 0.00 in - - ()
Sea Level Pressure  
Sea Level Pressure 29.56 in    
Wind  
Wind Speed 4 mph (ENE)    
Max Wind Speed 9 mph    
Max Gust Speed -    
Visibility 10 miles    
Events      
Averages and records for this station are not official NWS values.
T = Trace of Precipitation, MM = Missing Value Source: NWS Daily Summary

Daily Weather History Graph

Daily Weather History Graph

Search for Another Location

Airport or City:

Trip Planner

Search our weather history database for the weather conditions in past years. The results will help you decide how hot, cold, wet, or windy it might be!

Date:

Astronomy

Apr. 18, 2014 Rise Set
Actual Time 5:36 AM AKDT 9:49 PM AKDT
Civil Twilight 4:21 AM AKDT 11:05 PM AKDT
Nautical Twilight 2:14 AM AKDT 1:09 AM AKDT
Astronomical Twilight Sun does not set Sun does not set
Moon 2:03 AM AKDT (4/18) 6:42 AM AKDT (4/18)
Length of Visible Light 18h 43m
Length of Day
16h 13m
Waning Gibbous, 86% of the Moon is Illuminated
Apr 18
Waning Gibbous
Apr 21
Last Quarter
Apr 28
New
May 6
First Quarter
May 14
Full

Hourly Weather History & Observations

Time (AKDT) Temp. Windchill Dew Point Humidity Pressure Visibility Wind Dir Wind Speed Gust Speed Precip Events Conditions
12:16 AM 26.6 °F 22.6 °F 23.0 °F 86% 29.53 in 10.0 mi East 3.5 mph - N/A   Overcast
12:36 AM 26.6 °F - 19.4 °F 74% 29.53 in 10.0 mi Calm Calm - N/A   Overcast
12:56 AM 26.6 °F 22.6 °F 19.4 °F 74% 29.53 in 10.0 mi East 3.5 mph - N/A   Overcast
1:16 AM 26.6 °F 22.6 °F 24.8 °F 93% 29.53 in 10.0 mi ESE 3.5 mph - N/A   Overcast
1:36 AM 26.6 °F - 14.0 °F 59% 29.53 in 10.0 mi Calm Calm - N/A   Overcast
1:56 AM 26.6 °F 21.2 °F 26.6 °F 100% 29.53 in 10.0 mi NNE 4.6 mph - N/A   Overcast
2:16 AM 24.8 °F 19.1 °F 15.8 °F 69% 29.52 in 10.0 mi NE 4.6 mph - N/A   Overcast
2:36 AM 24.8 °F 17.9 °F 24.8 °F 100% 29.53 in 10.0 mi NNE 5.8 mph - N/A   Overcast
2:56 AM 26.6 °F 21.2 °F 17.6 °F 69% 29.52 in 10.0 mi NE 4.6 mph - N/A   Overcast
3:16 AM 26.6 °F - 21.2 °F 80% 29.52 in 10.0 mi Calm Calm - N/A   Overcast
3:36 AM 24.8 °F 17.9 °F 21.2 °F 86% 29.52 in 10.0 mi East 5.8 mph - N/A   Overcast
3:56 AM 24.8 °F 19.1 °F 15.8 °F 69% 29.52 in 10.0 mi NE 4.6 mph - N/A   Overcast
4:16 AM 24.8 °F 17.9 °F 24.8 °F 100% 29.52 in 10.0 mi NE 5.8 mph - N/A   Overcast
4:36 AM 24.8 °F 17.9 °F 12.2 °F 59% 29.52 in 10.0 mi NNE 5.8 mph - N/A   Overcast
4:56 AM 24.8 °F 17.9 °F 24.8 °F 100% 29.52 in 10.0 mi NE 5.8 mph - N/A   Overcast
5:16 AM 24.8 °F 19.1 °F 12.2 °F 59% 29.52 in 10.0 mi NE 4.6 mph - N/A   Overcast
5:36 AM 24.8 °F 20.5 °F 24.8 °F 100% 29.52 in 10.0 mi East 3.5 mph - N/A   Overcast
5:56 AM 24.8 °F 20.5 °F 15.8 °F 69% 29.52 in 10.0 mi NE 3.5 mph - N/A   Overcast
6:16 AM 24.8 °F 17.9 °F 21.2 °F 86% 29.52 in 10.0 mi NNE 5.8 mph - N/A   Overcast
6:36 AM 24.8 °F 19.1 °F 19.4 °F 80% 29.52 in 10.0 mi NNE 4.6 mph - N/A   Overcast
6:56 AM 24.8 °F 19.1 °F 14.0 °F 64% 29.52 in 10.0 mi NE 4.6 mph - N/A   Overcast
7:16 AM 24.8 °F 19.1 °F 24.8 °F 100% 29.52 in 10.0 mi NE 4.6 mph - N/A   Overcast
7:36 AM 24.8 °F 20.5 °F 12.2 °F 59% 29.52 in 10.0 mi East 3.5 mph - N/A   Overcast
7:56 AM 24.8 °F 20.5 °F 24.8 °F 100% 29.53 in 10.0 mi ENE 3.5 mph - N/A   Overcast
8:16 AM 26.6 °F - 10.4 °F 51% 29.54 in 10.0 mi Calm Calm - N/A   Overcast
8:36 AM 26.6 °F - 26.6 °F 100% 29.54 in 10.0 mi Calm Calm - N/A   Overcast
8:56 AM 26.6 °F - 15.8 °F 64% 29.54 in 10.0 mi Calm Calm - N/A   Overcast
9:16 AM 26.6 °F 22.6 °F 21.2 °F 80% 29.54 in 10.0 mi NNE 3.5 mph - N/A   Overcast
9:36 AM 28.4 °F - 21.2 °F 74% 29.54 in 10.0 mi Calm Calm - N/A   Overcast
9:56 AM 26.6 °F 21.2 °F 12.2 °F 55% 29.54 in 10.0 mi East 4.6 mph - N/A   Overcast
10:16 AM 28.4 °F 24.6 °F 26.6 °F 93% 29.55 in 10.0 mi NNE 3.5 mph - N/A   Overcast
10:36 AM 28.4 °F 23.3 °F 15.8 °F 59% 29.55 in 10.0 mi NE 4.6 mph - N/A   Overcast
10:56 AM 28.4 °F 22.2 °F 21.2 °F 74% 29.55 in 10.0 mi ENE 5.8 mph - N/A   Overcast
11:16 AM 28.4 °F 24.6 °F 21.2 °F 74% 29.55 in 10.0 mi ENE 3.5 mph - N/A   Overcast
11:36 AM 28.4 °F 23.3 °F 15.8 °F 59% 29.55 in 10.0 mi ENE 4.6 mph - N/A   Overcast
11:56 AM 30.2 °F 23.4 °F 26.6 °F 86% 29.56 in 10.0 mi ENE 6.9 mph - N/A   Overcast
12:16 PM 30.2 °F 24.3 °F 12.2 °F 47% 29.56 in 10.0 mi NNE 5.8 mph - N/A   Overcast
12:36 PM 30.2 °F 21.9 °F 21.2 °F 69% 29.56 in 10.0 mi NE 9.2 mph - N/A   Overcast
12:56 PM 30.2 °F 23.4 °F 21.2 °F 69% 29.56 in 10.0 mi NNE 6.9 mph - N/A   Overcast
1:16 PM 30.2 °F 24.3 °F 15.8 °F 55% 29.56 in 10.0 mi NNE 5.8 mph - N/A   Overcast
1:36 PM 30.2 °F 23.4 °F 23.0 °F 75% 29.56 in 10.0 mi NNE 6.9 mph - N/A   Overcast
1:56 PM 30.2 °F 24.3 °F 21.2 °F 69% 29.57 in 10.0 mi NNE 5.8 mph - N/A   Overcast
2:16 PM 30.2 °F 22.6 °F 15.8 °F 55% 29.57 in 10.0 mi NNE 8.1 mph - N/A   Overcast
2:36 PM 30.2 °F 24.3 °F 21.2 °F 69% 29.58 in 10.0 mi NNE 5.8 mph - N/A   Overcast
2:56 PM 32.0 °F 25.6 °F 21.2 °F 64% 29.58 in 10.0 mi ENE 6.9 mph - N/A   Overcast
3:16 PM 32.0 °F 26.4 °F 19.4 °F 60% 29.58 in 10.0 mi North 5.8 mph - N/A   Overcast
3:36 PM 32.0 °F 26.4 °F 17.6 °F 55% 29.58 in 10.0 mi North 5.8 mph - N/A   Overcast
3:56 PM 32.0 °F 26.4 °F 19.4 °F 60% 29.58 in 10.0 mi NNE 5.8 mph - N/A   Overcast
4:16 PM 32.0 °F 27.5 °F 19.4 °F 60% 29.59 in 10.0 mi NE 4.6 mph - N/A   Overcast
4:36 PM 32.0 °F 25.6 °F 19.4 °F 60% 29.58 in 10.0 mi NE 6.9 mph - N/A   Overcast
4:56 PM 32.0 °F 27.5 °F 19.4 °F 60% 29.58 in 10.0 mi NE 4.6 mph - N/A   Scattered Clouds
5:16 PM 32.0 °F 27.5 °F 19.4 °F 60% 29.59 in 10.0 mi East 4.6 mph - N/A   Scattered Clouds
5:36 PM 30.2 °F 23.4 °F 19.4 °F 64% 29.59 in 10.0 mi East 6.9 mph - N/A   Partly Cloudy
5:56 PM 30.2 °F 24.3 °F 19.4 °F 64% 29.59 in 10.0 mi East 5.8 mph - N/A   Mostly Cloudy
6:16 PM 30.2 °F 25.4 °F 21.2 °F 69% 29.59 in 10.0 mi ESE 4.6 mph - N/A   Overcast
6:36 PM 30.2 °F 23.4 °F 19.4 °F 64% 29.59 in 10.0 mi ESE 6.9 mph - N/A   Overcast
6:56 PM 30.2 °F 21.9 °F 19.4 °F 64% 29.59 in 10.0 mi ESE 9.2 mph - N/A   Overcast
7:16 PM 30.2 °F 22.6 °F 19.4 °F 64% 29.60 in 10.0 mi ESE 8.1 mph - N/A   Overcast
7:36 PM 30.2 °F 23.4 °F 19.4 °F 64% 29.60 in 10.0 mi ESE 6.9 mph - N/A   Overcast
7:56 PM 28.4 °F 21.2 °F 19.4 °F 69% 29.60 in 10.0 mi ESE 6.9 mph - N/A   Overcast
8:16 PM 28.4 °F 23.3 °F 19.4 °F 69% 29.61 in 10.0 mi SE 4.6 mph - N/A   Overcast
8:36 PM 28.4 °F 24.6 °F 21.2 °F 74% 29.61 in 10.0 mi ESE 3.5 mph - N/A   Overcast
8:56 PM 28.4 °F 23.3 °F 19.4 °F 69% 29.62 in 10.0 mi ESE 4.6 mph - N/A   Overcast
9:16 PM 28.4 °F 24.6 °F 19.4 °F 69% 29.62 in 10.0 mi SSE 3.5 mph - N/A   Overcast
9:36 PM 28.4 °F - 19.4 °F 69% 29.62 in 10.0 mi Calm Calm - N/A   Overcast
9:56 PM 26.6 °F - 19.4 °F 74% 29.63 in 10.0 mi Calm Calm - N/A   Overcast
10:16 PM 26.6 °F - 19.4 °F 74% 29.63 in 10.0 mi Calm Calm - N/A   Overcast
10:36 PM 26.6 °F 21.2 °F 19.4 °F 74% 29.63 in 10.0 mi East 4.6 mph - N/A   Overcast
10:56 PM 26.6 °F - 19.4 °F 74% 29.63 in 10.0 mi Calm Calm - N/A   Overcast
11:16 PM 26.6 °F - 17.6 °F 69% 29.64 in 10.0 mi Calm Calm - N/A   Overcast
11:36 PM 26.6 °F 22.6 °F 19.4 °F 74% 29.64 in 10.0 mi SSW 3.5 mph - N/A   Overcast
11:56 PM 24.8 °F 20.5 °F 19.4 °F 80% 29.64 in 10.0 mi South 3.5 mph - N/A   Overcast